Radiation Dose measured at exhaust stack monitor of Miscellaneous Solid Waste Incinerator Building/Incinerator raregas monitor
Date,Time,Incinerator Gas Monitor(cps),Wind Direction,Wind Velocity(m/s)
2021/04/09,00:00,1.5,west-northwest,7.7
2021/04/09,00:10,1.5,west-northwest,8.3
2021/04/09,00:20,1.4,west-northwest,8.5
2021/04/09,00:30,1.5,west-northwest,7.2
2021/04/09,00:40,1.5,northwest,6.0
2021/04/09,00:50,1.5,northwest,5.4
2021/04/09,01:00,1.5,northwest,5.0
2021/04/09,01:10,1.4,northwest,4.9
2021/04/09,01:20,1.6,northwest,5.0
2021/04/09,01:30,1.6,northwest,4.6
2021/04/09,01:40,1.6,north-northwest,4.7
2021/04/09,01:50,1.6,north-northwest,4.3
2021/04/09,02:00,1.4,north-northwest,4.2
2021/04/09,02:10,1.5,northwest,3.6
2021/04/09,02:20,1.5,northwest,5.5
2021/04/09,02:30,1.5,northwest,6.9
2021/04/09,02:40,1.4,north-northwest,7.1
2021/04/09,02:50,1.4,north-northwest,7.0
2021/04/09,03:00,1.5,northwest,6.8
2021/04/09,03:10,1.5,northwest,6.1
2021/04/09,03:20,1.6,northwest,7.0
2021/04/09,03:30,1.4,west-northwest,7.3
2021/04/09,03:40,1.5,west-northwest,8.2
2021/04/09,03:50,1.5,west-northwest,8.9
2021/04/09,04:00,1.4,west-northwest,9.7
2021/04/09,04:10,1.5,west-northwest,8.3
2021/04/09,04:20,1.5,west-northwest,5.2
2021/04/09,04:30,1.4,west-northwest,5.7
2021/04/09,04:40,1.4,northwest,7.1
2021/04/09,04:50,1.5,northwest,6.0
2021/04/09,05:00,1.5,northwest,5.6
2021/04/09,05:10,1.5,west-northwest,6.6
2021/04/09,05:20,1.5,northwest,6.2
2021/04/09,05:30,1.5,northwest,5.7
2021/04/09,05:40,1.5,west-northwest,5.4
2021/04/09,05:50,1.5,west,5.3
2021/04/09,06:00,1.4,west,5.8
2021/04/09,06:10,1.5,west-northwest,5.3
2021/04/09,06:20,1.4,northwest,2.5
2021/04/09,06:30,1.5,north-northeast,0.6
2021/04/09,06:40,1.5,northwest,1.2
2021/04/09,06:50,1.5,north-northwest,2.3
2021/04/09,07:00,1.4,northwest,1.9
2021/04/09,07:10,1.5,north,1.7
2021/04/09,07:20,1.5,north-northeast,4.2
2021/04/09,07:30,1.5,northeast,3.7
2021/04/09,07:40,1.6,east,3.4
2021/04/09,07:50,1.5,east-southeast,2.2
2021/04/09,08:00,1.4,southeast,3.5
2021/04/09,08:10,1.4,west-southwest,1.2
2021/04/09,08:20,1.5,west-northwest,4.7
2021/04/09,08:30,1.4,west-northwest,7.2
2021/04/09,08:40,1.4,west,6.7
2021/04/09,08:50,1.4,west-northwest,7.4
2021/04/09,09:00,1.6,northwest,2.8
2021/04/09,09:10,1.5,west-northwest,2.0
2021/04/09,09:20,1.4,west-northwest,7.2
2021/04/09,09:30,1.5,west,5.5
2021/04/09,09:40,1.4,west,7.0
2021/04/09,09:50,1.4,west-northwest,9.3
2021/04/09,10:00,1.4,west-northwest,8.4
2021/04/09,10:10,1.4,west-northwest,7.4
2021/04/09,10:20,1.4,north,4.1
2021/04/09,10:30,1.5,north-northeast,5.5
2021/04/09,10:40,1.4,north-northeast,3.8
2021/04/09,10:50,1.4,north,2.6
2021/04/09,11:00,1.4,east,1.9
2021/04/09,11:10,1.4,west,3.6
2021/04/09,11:20,1.4,west-southwest,6.4
2021/04/09,11:30,1.5,west-northwest,8.2
2021/04/09,11:40,1.5,west,8.2
2021/04/09,11:50,1.5,north,3.2
2021/04/09,12:00,1.5,west,2.3
2021/04/09,12:10,1.5,west-northwest,8.3
2021/04/09,12:20,1.4,west,8.9
2021/04/09,12:30,1.5,west,10.7
2021/04/09,12:40,1.5,west,8.7
2021/04/09,12:50,1.4,west,9.2
2021/04/09,13:00,1.5,west,10.2
2021/04/09,13:10,1.5,northwest,8.0
2021/04/09,13:20,1.4,north-northwest,6.5
2021/04/09,13:30,1.4,west-northwest,7.5
2021/04/09,13:40,1.5,west,11.0
2021/04/09,13:50,1.4,west,8.7
2021/04/09,14:00,1.4,north-northwest,6.0
2021/04/09,14:10,1.5,north-northwest,4.2
2021/04/09,14:20,1.4,north-northwest,6.0
2021/04/09,14:30,1.4,northwest,6.8
2021/04/09,14:40,1.5,north-northwest,6.4
2021/04/09,14:50,1.5,northwest,5.3
2021/04/09,15:00,1.5,northwest,7.7
2021/04/09,15:10,1.6,northwest,7.2
2021/04/09,15:20,1.5,northwest,7.3
2021/04/09,15:30,1.5,north-northwest,7.2
2021/04/09,15:40,1.5,north-northwest,10.9
2021/04/09,15:50,1.5,north-northwest,9.0
2021/04/09,16:00,1.4,north-northwest,8.3
2021/04/09,16:10,1.5,north-northwest,9.1
2021/04/09,16:20,1.4,north-northwest,8.0
2021/04/09,16:30,1.5,north-northwest,7.9
2021/04/09,16:40,1.4,north-northwest,9.6
2021/04/09,16:50,1.5,north-northwest,10.5
2021/04/09,17:00,1.5,northwest,9.3
2021/04/09,17:10,1.5,north-northwest,7.7
2021/04/09,17:20,1.4,north-northwest,6.4
2021/04/09,17:30,1.4,northwest,5.8
2021/04/09,17:40,1.5,northwest,5.2
2021/04/09,17:50,1.4,north-northwest,4.0
2021/04/09,18:00,1.5,north-northwest,5.3
2021/04/09,18:10,1.5,north-northwest,5.5
2021/04/09,18:20,1.5,northwest,6.3
2021/04/09,18:30,1.5,north-northwest,6.5
2021/04/09,18:40,1.5,north-northwest,5.7
2021/04/09,18:50,1.4,north-northwest,8.8
2021/04/09,19:00,1.5,northwest,8.4
2021/04/09,19:10,1.5,north-northwest,7.3
2021/04/09,19:20,1.5,northwest,7.6
2021/04/09,19:30,1.5,northwest,7.0
2021/04/09,19:40,1.4,northwest,7.7
2021/04/09,19:50,1.5,northwest,7.4
2021/04/09,20:00,1.5,northwest,7.3
2021/04/09,20:10,1.4,northwest,5.7
2021/04/09,20:20,1.5,northwest,7.0
2021/04/09,20:30,1.5,northwest,5.6
2021/04/09,20:40,1.4,northwest,6.5
2021/04/09,20:50,1.5,northwest,8.0
2021/04/09,21:00,1.4,northwest,7.2
2021/04/09,21:10,1.5,northwest,7.5
2021/04/09,21:20,1.5,northwest,6.7
2021/04/09,21:30,1.5,northwest,6.0
2021/04/09,21:40,1.5,northwest,5.2
2021/04/09,21:50,1.5,northwest,8.4
2021/04/09,22:00,1.5,north-northwest,8.5
2021/04/09,22:10,1.5,northwest,11.1
2021/04/09,22:20,1.4,northwest,11.0
2021/04/09,22:30,1.4,northwest,10.5
2021/04/09,22:40,1.5,northwest,12.0
2021/04/09,22:50,1.5,northwest,12.4
2021/04/09,23:00,1.4,northwest,12.4
2021/04/09,23:10,1.4,northwest,10.2
2021/04/09,23:20,1.4,northwest,10.6
2021/04/09,23:30,1.5,northwest,14.2
2021/04/09,23:40,1.5,northwest,8.8
2021/04/09,23:50,1.5,north-northeast,1.1
